Regional Weather Roundup
Issued by NWS

Home | Current Version | Previous Version | Graphics & Text | Print | Product List | Glossary On
Versions: 1 2 3 4 5 6 7 8 9 10 11 12 13 14 15 16 17 18 19 20 21 22 23 24 25 26 27 28 29 30 31 32 33 34 35 36 37 38 39 40 41 42 43 44 45 46 47 48 49 50
879
ASUS45 KCYS 231010
RWRWY

WYOMING REGIONAL WEATHER ROUNDUP
NATIONAL WEATHER SERVICE CHEYENNE WY
400 AM MDT SAT JUL 23 2016

NOTE:  "FAIR" INDICATES FEW OR NO CLOUDS BELOW 12,000 FEET
WITH NO SIGNIFICANT WEATHER AND/OR OBSTRUCTIONS TO VISIBILITY.

WYZ001-231100-
YELLOWSTONE NATIONAL PARK

CITY           SKY/WX    TMP DP  RH WIND       PRES   REMARKS
LK YELLOWSTONE   N/A     40  26  57 CALM      30.31R
W YELLOWSTONE  NOT AVBL

$$
WYZ002>013-054>058-071-098>099-231100-
NORTHERN WYOMING

CITY           SKY/WX    TMP DP  RH WIND       PRES   REMARKS
JACKSON        FAIR      50  27  40 E5        30.21S
CODY           FAIR      64  39  39 NW8G16    30.10R
GREYBULL       FAIR      72  43  35 NW14      29.94S
WORLAND        FAIR      65  40  39 CALM      29.98S
SHERIDAN       FAIR      69  41  36 NW24G31   30.04R
BUFFALO        FAIR      67  41  38 N28G40    30.05R
GILLETTE       FAIR      72  45  37 W18       29.95R
HULETT         FAIR      75  54  46 SW9       29.92S
NEWCASTLE      FAIR      72  52  49 SE8G18    29.95F

$$
WYZ014>020-022>026-101>103-231100-
CENTRAL WYOMING

CITY           SKY/WX    TMP DP  RH WIND       PRES   REMARKS
BIG PINEY      FAIR      44  26  49 N3        30.27F
PINEDALE       FAIR      41  37  87 W6        30.29R
DUBOIS         FAIR      48  25  40 NW8       30.22S
LANDER         FAIR      70  32  24 SW14      30.06F
RIVERTON       FAIR      63  43  48 SW7       30.09R
CASPER         FAIR      71  44  37 W10       30.06R
DOUGLAS          N/A    N/A N/A N/A MISG      30.03S

$$
WYZ021-027>030-104>119-231100-
SOUTHERN WYOMING

CITY           SKY/WX    TMP DP  RH WIND       PRES   REMARKS
EVANSTON       FAIR      64  31  28 SE3       30.30S
KEMMERER         N/A     54  30  40 NW6       30.30S
FORT BRIDGER   FAIR      63  32  31 W10       30.31S
ROCK SPRINGS   FAIR      63  37  38 SW9       30.24S
DIXON          FAIR      55  47  75 CALM      30.28S
RAWLINS        FAIR      67  40  37 SW12      30.21F
SARATOGA       PTSUNNY   63  41  45 SE10G18   30.26S
LARAMIE        FAIR      56  43  61 SE6       30.25S
CHEYENNE       FAIR      66  47  50 W9        30.14F
TORRINGTON     FAIR      64  61  90 N3        29.96F
PINE BLUFFS    FAIR      64  61  88 S3        30.07F

$$




USA.gov is the U.S. government's official web portal to all federal, state and local government web resources and services.